Temperature
25 25 25 25 24 24 23 23 23 23 22 22 22 20 19 17 17 16 15 14 13 12 12 11 10 9 9 9 8 8 7 7 7 7 7 7 7 7 7 7 7 7 8 8
25 25 24 24 24 23 23 23 23 23 22 22 20 19 18 17 16 15 14 13 12 12 11 10 9 9 8 8 8 7 7 7 7 6 6 6 6 6 6 6 6 7 7 7
25 25 24 24 24 23 23 23 23 22 22 22 20 19 17 16 15 14 13 12 11 11 10 10 9 8 8 8 7 7 6 6 6 6 6 6 6 6 6 6 6 6 6 6
25 24 23 24 24 24 23 23 23 22 22 21 19 18 16 15 14 13 12 11 11 10 10 9 9 8 7 7 7 6 6 6 6 6 6 6 6 6 6 6 6 6 6 6
25 25 25 24 23 23 22 22 23 22 21 19 18 17 18 15 13 12 11 11 10 9 9 9 8 8 7 7 6 6 6 6 6 6 6 6 6 6 6 5 5 5 6 6
24 23 23 24 23 22 22 22 22 20 20 19 18 18 18 15 13 12 11 10 9 9 9 8 8 7 7 6 6 6 6 6 6 6 6 6 6 6 6 5 5 5 5 6
24 24 25 24 22 21 22 22 20 19 18 17 17 16 15 13 12 11 10 10 9 9 8 8 7 7 6 6 6 6 6 6 6 6 6 6 6 6 5 5 5 5 5 5
24 23 24 23 22 22 22 20 19 18 17 16 15 15 14 13 11 11 10 9 9 8 8 8 7 7 6 6 6 6 6 6 6 6 6 6 6 6 6 5 5 5 5 5
24 24 23 22 23 22 20 19 18 17 16 15 15 14 13 12 11 10 10 9 9 8 8 7 7 7 6 6 6 6 6 6 6 6 6 6 6 6 6 5 5 5 5 5
23 24 23 22 21 20 19 18 17 16 15 15 14 13 12 11 11 10 9 9 8 8 8 7 7 7 7 6 6 6 6 6 6 6 6 6 6 6 6 5 5 5 5 5
23 24 23 22 21 20 19 17 16 16 15 14 13 13 12 11 10 9 9 8 8 7 7 7 7 7 7 6 6 6 6 6 6 6 7 6 6 6 6 6 5 5 5 5
24 24 23 23 21 20 18 17 16 15 14 14 13 12 11 10 10 9 9 8 8 7 7 7 7 7 7 6 6 6 6 6 6 7 7 7 6 6 6 6 5 5 5 5
23 23 22 21 20 19 18 17 16 15 14 13 12 11 11 10 9 9 8 8 7 7 7 7 7 7 7 7 7 6 6 6 6 7 7 7 7 6 6 6 6 6 6 5
21 20 21 20 20 18 17 16 15 14 13 13 12 11 10 10 9 9 8 8 7 7 7 7 7 7 7 7 7 7 7 7 7 7 7 7 7 7 6 6 6 6 6 6
20 20 20 20 19 18 16 16 15 15 14 13 12 11 10 10 9 8 8 8 7 7 7 7 7 7 7 7 7 7 7 7 7 7 7 7 7 7 7 6 6 6 6 6
21 19 19 18 18 17 16 16 15 15 14 13 12 11 10 9 9 8 8 8 7 7 7 7 7 8 8 7 7 7 7 7 7 7 7 8 7 7 7 6 6 6 6 6
20 19 18 18 18 17 17 16 15 14 14 12 11 10 10 9 9 8 8 8 7 7 7 7 7 8 8 7 7 7 7 7 7 8 8 8 7 7 7 6 6 6 6 6
20 20 19 19 19 18 17 16 15 14 13 12 11 10 9 9 8 8 8 8 8 7 7 8 8 8 8 8 7 7 7 7 8 8 8 8 7 7 7 7 7 6 6 6
19 19 19 18 18 17 16 15 14 13 12 11 10 10 9 9 8 8 8 8 7 8 8 9 9 8 8 8 8 8 7 8 8 8 8 8 8 8 7 7 7 7 7 7
18 18 17 17 17 16 15 15 14 13 12 11 10 10 9 9 8 8 8 7 7 7 8 8 9 8 8 8 8 8 8 8 8 8 8 8 8 8 8 7 7 7 7 7
17 17 16 16 16 15 15 14 13 12 11 10 10 9 9 9 8 8 8 8 7 7 8 8 8 8 8 8 8 8 8 8 8 8 8 8 8 8 8 8 8 7 7 7
16 16 16 16 16 15 15 14 13 12 11 10 10 9 9 9 9 8 8 7 7 8 8 8 8 8 8 8 8 8 8 8 8 8 8 8 8 8 8 8 8 8 8 8
14 15 15 15 15 15 14 14 13 12 11 11 10 9 9 9 9 8 8 7 7 8 8 7 8 8 8 8 8 8 8 8 8 8 8 9 9 9 9 9 9 9 9 9
14 14 14 14 14 14 14 14 13 12 11 10 10 10 9 9 9 8 8 8 8 8 7 7 8 8 8 8 8 8 8 8 8 8 8 9 9 9 9 9 9 9 9 9
13 13 13 13 13 13 13 13 13 12 11 10 10 10 9 9 9 8 8 7 8 8 7 7 8 8 8 8 8 8 8 8 8 8 8 9 9 9 9 9 9 9 9 10
13 13 13 13 13 13 13 13 12 12 11 11 10 10 9 9 9 8 8 7 7 7 7 7 7 7 8 8 8 8 8 8 8 8 8 9 9 9 9 9 9 10 10 10
13 13 13 13 13 13 13 13 12 12 12 11 10 10 9 9 8 8 8 7 7 7 6 6 6 7 7 8 8 8 8 8 8 8 8 9 9 9 9 9 9 10 10 10
Wind_Speed
2 1 3 3 2 2 4 6 9 12 14 14 12 11 11 14 16 17 16 16 17 17 18 18 18 18 18 18 18 18 18 19 19 19 18 18 18 18 18 17 18 17 17 17
3 3 4 6 5 5 5 7 10 13 13 9 9 10 13 15 16 17 16 17 18 19 19 19 19 18 18 18 18 18 18 19 19 18 18 18 18 18 18 18 18 17 17 18
5 2 7 7 7 7 6 8 11 13 14 13 13 14 15 16 15 15 17 18 19 19 19 19 18 18 18 18 18 18 18 18 18 18 18 18 19 19 18 18 18 18 17 18
7 5 7 2 3 3 7 10 10 11 13 13 13 14 14 12 11 15 17 18 19 18 19 19 18 18 17 18 17 18 18 18 18 18 19 19 19 18 18 17 16 16 16 17
7 10 10 3 4 3 7 12 6 9 12 13 13 15 9 5 11 15 16 17 17 18 19 19 18 17 17 17 17 17 18 18 18 18 19 19 18 18 17 15 15 15 15 15
8 11 10 1 6 2 5 6 2 7 11 12 13 13 11 13 15 16 16 16 17 18 18 17 17 17 17 17 17 18 18 18 18 18 18 18 18 17 15 14 14 14 14 13
11 11 7 6 7 4 6 8 6 7 9 10 11 11 15 16 16 16 17 17 17 17 16 16 16 16 17 17 17 17 18 18 18 17 17 17 16 15 14 13 12 12 12 11
7 8 4 10 6 4 6 4 5 6 7 9 11 13 14 15 15 16 17 17 17 16 17 16 16 16 17 17 17 17 17 17 18 17 15 14 15 14 12 11 10 9 9 9
5 6 3 7 6 2 3 5 5 5 7 8 11 13 14 14 15 15 16 16 16 17 17 16 15 15 17 17 17 16 17 17 17 17 15 13 13 12 11 8 7 6 6 6
8 8 6 7 8 7 6 6 4 4 6 8 11 13 13 13 14 15 16 16 16 17 17 17 17 16 16 16 15 15 16 16 15 14 14 13 10 9 8 7 6 5 4 4
11 11 7 9 9 8 6 6 5 5 6 8 10 12 13 13 14 15 15 15 15 15 16 18 17 17 16 15 15 15 15 14 14 13 12 11 9 7 8 6 5 5 4 3
9 5 6 4 4 5 7 7 6 6 6 7 8 11 12 13 13 14 15 15 15 16 17 17 17 17 16 15 14 14 13 12 11 11 10 9 9 7 2 3 3 3 4 4
9 6 6 4 5 6 6 6 5 5 6 7 8 9 11 12 13 14 15 15 16 16 16 16 16 16 16 16 15 14 13 12 11 11 10 9 8 7 5 1 1 1 1 1
9 7 8 9 7 7 7 6 5 5 5 6 7 9 10 12 13 14 15 15 15 16 15 15 16 16 16 16 15 14 14 12 11 10 10 9 8 6 5 5 3 0 3 3
12 13 10 6 7 8 8 7 6 6 5 6 6 8 10 12 13 14 14 14 14 15 15 15 16 17 17 16 15 15 12 10 10 10 9 8 7 6 5 5 4 2 1 4
10 13 12 10 10 10 10 9 8 6 5 5 6 8 10 11 13 13 13 13 14 15 15 15 15 17 17 16 15 12 10 11 11 10 9 8 7 6 5 4 3 2 1 2
11 14 15 15 13 12 11 9 7 6 5 5 6 7 9 11 12 13 13 13 13 13 12 13 16 17 16 15 14 11 10 10 10 9 8 8 8 6 6 4 3 2 1 2
12 12 12 12 12 12 11 10 8 6 5 4 5 6 8 10 12 13 14 14 13 13 12 14 17 18 16 15 13 10 9 9 8 8 7 8 7 6 5 5 4 3 2 3
9 9 9 10 9 9 9 9 8 6 5 4 4 6 7 9 11 12 13 13 13 13 15 17 18 16 16 16 16 10 9 9 8 7 6 6 6 7 7 6 5 4 3 2
5 7 9 10 10 9 9 8 8 7 6 5 4 5 7 8 10 11 12 10 8 10 14 16 16 14 15 15 16 10 10 9 8 7 7 7 6 7 6 6 6 5 3 2
5 7 9 10 11 10 10 9 8 8 7 6 5 5 6 7 9 9 10 10 9 12 15 14 11 12 13 15 14 9 9 8 7 7 7 7 6 6 6 6 6 5 4 3
8 7 9 11 11 11 10 9 9 8 8 7 6 5 5 6 8 8 8 7 10 12 12 10 10 14 18 17 9 9 8 8 7 6 6 7 7 7 8 8 7 6 5 5
10 8 9 11 11 11 11 10 10 10 9 8 7 5 4 4 6 7 8 7 9 12 11 9 12 17 20 11 8 8 8 8 7 6 6 6 6 7 7 8 7 7 7 6
12 10 10 10 11 12 12 12 11 10 9 8 7 6 4 4 4 4 6 6 7 10 9 8 11 15 14 8 8 8 8 8 7 6 6 6 5 6 7 7 7 7 8 8
13 12 11 11 12 11 11 11 11 11 10 8 8 7 5 2 3 4 5 7 7 8 9 7 8 11 9 8 8 8 7 7 8 7 6 5 5 6 6 7 7 7 7 8
14 12 11 11 11 10 10 10 10 10 10 9 8 7 5 3 2 2 3 5 7 7 7 7 8 8 8 8 8 8 8 7 7 6 7 6 6 6 6 7 8 7 7 7
15 13 10 11 11 11 11 10 11 10 10 9 8 7 6 4 2 1 2 4 5 6 6 6 6 7 7 8 8 8 7 7 7 7 6 6 6 5 6 6 6 6 7 7
Wind_Direction
22 351 298 285 260 289 334 336 322 324 319 327 338 329 320 317 319 320 320 319 320 319 319 317 316 315 313 312 312 311 309 306 304 303 301 298 294 291 287 282 276 271 264 257
245 237 271 268 249 252 286 311 316 315 322 349 328 314 314 320 322 319 320 322 321 320 319 318 317 315 314 312 312 311 308 306 306 304 301 298 295 292 288 283 278 274 267 259
296 261 277 266 235 241 280 315 317 315 326 330 318 319 320 320 318 319 321 321 320 319 318 317 316 316 313 313 312 310 307 304 303 301 300 297 295 292 288 284 279 273 267 260
294 281 280 30 105 249 286 303 309 308 317 323 319 317 308 306 317 320 320 319 319 318 317 317 318 318 315 313 311 309 306 304 304 303 301 300 296 292 288 283 279 274 267 260
283 287 291 173 183 236 296 305 310 316 320 320 322 311 315 8 330 320 318 319 317 317 317 318 318 319 317 313 311 308 307 308 308 306 304 302 299 296 293 287 280 273 267 260
272 290 297 27 135 146 284 291 24 319 316 320 321 317 334 345 330 323 322 320 319 318 317 318 321 320 315 312 310 309 310 310 309 305 302 302 300 298 295 289 282 276 268 258
271 279 285 123 143 189 290 343 348 320 316 315 318 312 317 322 323 322 320 319 320 319 319 321 320 318 313 310 309 311 310 309 307 305 304 302 301 300 297 292 285 277 270 262
271 275 284 139 168 250 320 336 316 313 312 313 311 311 315 319 320 321 321 322 323 322 320 321 320 318 313 311 312 311 309 308 308 308 308 306 305 305 303 298 291 285 275 263
273 292 81 184 218 255 292 291 301 304 311 313 311 315 318 320 321 322 322 323 323 322 319 320 323 321 314 313 314 311 309 309 310 311 311 309 309 310 309 304 294 288 277 262
263 271 245 224 232 243 250 266 282 290 304 309 311 316 319 320 321 323 324 324 324 322 321 321 323 321 316 315 314 311 310 311 312 313 315 318 316 315 313 312 307 298 288 266
261 271 261 234 231 238 234 236 248 267 292 306 310 313 318 319 321 323 323 324 323 321 320 320 323 320 320 321 320 315 313 314 314 316 319 320 321 323 324 333 332 309 302 293
275 277 245 239 190 207 215 223 238 263 287 301 306 311 316 317 321 322 322 323 323 323 322 322 322 321 323 325 323 315 313 315 315 317 319 320 323 328 330 310 330 312 297 309
262 258 240 209 182 191 206 215 224 248 280 298 306 310 314 317 319 322 323 325 325 323 322 321 322 323 327 329 324 317 313 315 314 315 318 321 325 331 336 320 207 164 341 331
236 225 226 219 210 194 199 203 218 244 270 289 302 309 313 317 320 323 326 327 324 322 322 324 326 328 331 330 325 321 318 319 315 315 320 324 328 331 336 337 334 131 125 105
225 218 227 214 192 185 192 201 221 246 268 285 296 307 315 320 322 323 325 326 325 323 327 330 329 330 333 330 326 324 323 326 325 323 325 331 335 334 340 345 346 12 100 118
230 216 217 207 201 196 200 210 230 252 270 284 296 309 317 318 319 322 327 330 329 327 328 329 331 332 331 329 327 325 325 321 321 325 335 344 348 350 356 3 5 22 73 121
224 212 210 212 210 207 209 215 228 247 262 275 295 310 316 319 322 328 331 333 329 323 327 335 335 332 330 331 331 327 327 327 321 328 348 357 2 4 3 6 14 29 61 87
235 231 220 214 209 205 206 211 218 229 245 266 288 305 316 323 326 329 330 330 329 330 341 344 340 332 333 338 337 328 328 331 339 346 351 1 4 6 15 21 27 47 77 115
243 230 211 198 193 193 196 201 207 215 222 240 272 299 313 320 326 327 327 327 330 336 342 340 334 333 339 342 338 329 331 335 344 352 1 12 9 12 19 27 35 43 53 85
250 220 204 193 186 187 189 192 197 202 210 223 253 287 309 323 329 328 327 324 339 343 333 330 331 338 340 339 334 331 338 342 349 359 9 22 23 22 25 28 32 37 39 46
278 233 212 201 195 194 193 192 196 204 207 216 240 276 305 319 326 328 326 328 344 348 335 322 334 345 341 333 322 337 346 350 355 4 8 19 26 30 31 34 38 38 41 53
304 265 237 220 207 203 197 194 200 207 209 215 231 255 287 310 324 327 326 332 337 348 336 334 347 347 337 327 337 348 352 355 359 8 9 15 25 33 36 40 44 48 54 63
313 286 260 239 223 215 204 200 203 208 213 217 226 244 276 312 324 325 327 345 339 339 330 341 348 339 331 334 347 352 356 359 2 8 11 17 27 33 38 44 44 45 51 63
315 298 274 254 236 223 214 207 205 207 212 216 219 225 247 285 307 329 334 335 338 333 331 348 344 336 331 346 353 356 357 359 1 4 11 22 33 40 41 42 40 38 43 52
311 298 281 260 242 233 224 213 207 205 208 212 214 208 219 248 303 328 331 333 347 337 336 346 344 336 348 356 358 357 359 2 357 356 10 17 25 39 45 43 41 40 43 51
305 293 281 261 250 244 230 216 209 204 204 208 209 204 202 200 230 297 323 336 345 343 341 346 349 351 359 358 359 358 357 357 0 7 10 10 22 31 33 32 37 35 38 45
296 289 275 265 254 241 233 221 214 208 204 206 207 196 193 190 196 295 339 348 352 351 352 353 355 1 2 1 3 4 4 3 4 6 7 8 11 17 25 27 28 30 34 44
Height
1503 1503 1503 1505 1507 1508 1508 1510 1510 1509 1507 1503 1505 1508 1509 1509 1507 1505 1503 1500 1498 1494 1490 1486 1482 1477 1472 1467 1463 1458 1454 1449 1445 1441 1436 1433 1429 1426 1423 1421 1419 1418 1417 1417
1505 1504 1504 1506 1506 1507 1508 1507 1507 1505 1503 1503 1507 1508 1507 1506 1505 1502 1500 1497 1494 1490 1486 1481 1476 1471 1466 1462 1457 1452 1447 1443 1438 1433 1429 1425 1421 1418 1414 1411 1409 1408 1407 1407
1502 1502 1506 1505 1502 1504 1505 1504 1505 1505 1504 1502 1504 1505 1505 1504 1502 1500 1497 1494 1490 1485 1481 1476 1471 1466 1461 1456 1451 1446 1441 1436 1431 1427 1422 1417 1413 1409 1405 1402 1399 1397 1396 1396
1500 1508 1516 1502 1499 1501 1504 1503 1500 1501 1501 1502 1503 1503 1502 1500 1500 1497 1494 1490 1486 1481 1476 1471 1466 1461 1456 1450 1445 1440 1435 1430 1425 1420 1415 1410 1405 1400 1396 1393 1390 1387 1386 1386
1501 1501 1498 1498 1500 1501 1503 1501 1499 1501 1501 1502 1501 1500 1495 1497 1497 1495 1491 1487 1482 1477 1472 1466 1461 1456 1450 1445 1440 1435 1429 1424 1419 1413 1408 1402 1397 1392 1388 1384 1381 1378 1377 1376
1499 1508 1507 1496 1497 1502 1504 1499 1499 1501 1501 1500 1499 1494 1492 1495 1493 1490 1486 1482 1477 1472 1467 1462 1456 1451 1445 1440 1434 1429 1424 1418 1413 1407 1401 1395 1390 1385 1380 1376 1373 1370 1369 1368
1497 1499 1490 1492 1498 1502 1503 1500 1499 1499 1500 1500 1498 1498 1495 1492 1489 1486 1482 1478 1473 1468 1463 1457 1452 1446 1440 1435 1429 1424 1418 1412 1407 1401 1395 1389 1384 1379 1374 1370 1366 1364 1362 1361
1496 1500 1495 1493 1496 1497 1497 1498 1498 1498 1498 1498 1497 1495 1492 1490 1486 1482 1478 1474 1469 1464 1458 1453 1448 1442 1436 1430 1424 1418 1413 1407 1401 1396 1390 1384 1379 1373 1369 1365 1361 1359 1357 1356
1489 1490 1490 1491 1492 1494 1495 1496 1496 1496 1496 1496 1494 1492 1489 1486 1483 1479 1474 1470 1465 1460 1454 1449 1444 1438 1431 1425 1419 1413 1408 1402 1397 1391 1385 1380 1374 1369 1365 1361 1358 1355 1353 1352
1489 1483 1487 1490 1491 1492 1493 1494 1494 1494 1494 1493 1491 1489 1486 1483 1479 1475 1471 1466 1462 1456 1451 1445 1440 1434 1428 1421 1415 1409 1404 1398 1393 1387 1382 1376 1371 1366 1362 1358 1355 1353 1351 1350
1486 1483 1485 1486 1487 1489 1490 1490 1491 1491 1491 1490 1488 1486 1484 1480 1476 1472 1468 1463 1458 1453 1448 1442 1436 1430 1424 1418 1411 1405 1400 1395 1390 1385 1379 1373 1369 1364 1360 1357 1354 1352 1350 1349
1480 1478 1481 1481 1484 1485 1486 1487 1488 1488 1488 1487 1486 1483 1481 1477 1474 1469 1465 1460 1455 1450 1444 1438 1432 1426 1420 1414 1408 1402 1396 1391 1387 1382 1377 1371 1367 1363 1359 1356 1353 1351 1350 1349
1477 1478 1479 1480 1481 1482 1483 1484 1485 1485 1485 1484 1482 1480 1478 1474 1471 1466 1462 1457 1452 1446 1441 1435 1429 1423 1417 1411 1405 1399 1394 1389 1384 1379 1374 1370 1365 1362 1358 1355 1353 1351 1350 1349
1475 1476 1476 1477 1478 1479 1480 1481 1482 1482 1481 1481 1479 1477 1475 1471 1468 1463 1459 1454 1448 1443 1438 1433 1427 1420 1414 1408 1402 1396 1391 1387 1382 1377 1373 1368 1364 1360 1357 1355 1352 1351 1350 1349
1470 1471 1472 1473 1475 1476 1477 1478 1478 1478 1478 1477 1476 1474 1472 1468 1464 1460 1456 1450 1445 1441 1436 1430 1424 1418 1411 1405 1400 1394 1389 1385 1380 1376 1372 1368 1364 1360 1357 1354 1352 1351 1350 1349
1465 1466 1468 1469 1470 1472 1473 1474 1475 1475 1475 1474 1473 1471 1468 1465 1461 1457 1453 1448 1443 1438 1433 1427 1422 1416 1409 1404 1398 1393 1388 1384 1380 1376 1372 1368 1364 1360 1357 1354 1352 1351 1350 1349
1460 1460 1462 1463 1466 1467 1469 1470 1471 1471 1471 1470 1469 1467 1465 1462 1458 1454 1450 1445 1441 1436 1432 1426 1420 1414 1408 1402 1397 1392 1388 1384 1380 1376 1373 1369 1365 1361 1358 1355 1353 1352 1351 1350
1455 1456 1458 1459 1461 1463 1464 1466 1466 1467 1467 1467 1466 1464 1462 1459 1455 1451 1446 1442 1438 1434 1430 1425 1419 1413 1407 1402 1397 1392 1388 1384 1381 1377 1374 1370 1366 1363 1360 1357 1355 1353 1352 1351
1451 1453 1454 1455 1457 1459 1460 1461 1462 1463 1462 1462 1461 1460 1458 1456 1452 1448 1444 1440 1436 1431 1427 1422 1417 1412 1407 1402 1397 1392 1388 1385 1382 1379 1376 1372 1369 1366 1363 1360 1358 1356 1354 1353
1449 1450 1451 1452 1453 1455 1456 1457 1458 1458 1458 1458 1457 1457 1455 1453 1449 1445 1442 1439 1435 1430 1425 1420 1416 1411 1406 1402 1397 1393 1390 1387 1384 1381 1378 1375 1372 1369 1366 1363 1361 1358 1357 1355
1448 1448 1449 1449 1450 1451 1452 1453 1454 1454 1454 1454 1454 1453 1451 1449 1446 1443 1439 1437 1433 1428 1423 1419 1415 1411 1406 1402 1398 1394 1391 1388 1385 1383 1380 1378 1375 1372 1369 1367 1364 1362 1360 1358
1447 1447 1447 1447 1447 1447 1448 1449 1449 1450 1451 1450 1450 1449 1447 1445 1443 1440 1438 1435 1430 1426 1422 1418 1414 1410 1406 1402 1399 1395 1392 1390 1387 1385 1383 1381 1378 1376 1374 1371 1369 1366 1364 1362
1445 1444 1444 1443 1443 1444 1444 1444 1445 1445 1446 1446 1446 1445 1444 1442 1440 1438 1436 1432 1428 1424 1420 1417 1414 1410 1406 1403 1400 1397 1394 1391 1389 1388 1386 1384 1382 1380 1378 1376 1374 1371 1369 1367
1443 1440 1439 1439 1438 1438 1438 1438 1439 1440 1441 1441 1441 1441 1440 1438 1437 1435 1432 1429 1425 1422 1419 1416 1413 1409 1406 1404 1401 1398 1395 1393 1391 1390 1388 1387 1385 1384 1382 1381 1379 1377 1375 1373
1439 1437 1434 1434 1433 1433 1433 1433 1434 1435 1436 1437 1437 1436 1435 1434 1433 1432 1429 1426 1422 1419 1417 1415 1412 1409 1406 1404 1401 1399 1397 1394 1393 1392 1391 1389 1388 1387 1386 1385 1383 1382 1381 1379
1435 1432 1430 1428 1427 1427 1427 1428 1428 1429 1430 1431 1432 1432 1431 1430 1429 1428 1426 1424 1421 1418 1415 1413 1411 1409 1406 1404 1402 1399 1398 1396 1394 1393 1392 1392 1391 1390 1389 1389 1388 1387 1386 1385
1429 1426 1423 1421 1420 1419 1420 1421 1422 1422 1424 1425 1427 1427 1427 1426 1426 1425 1423 1421 1419 1416 1414 1412 1410 1408 1406 1404 1402 1400 1398 1397 1396 1395 1394 1393 1393 1392 1392 1391 1391 1390 1390 1389